Flag for Germany Weather past 2 weeks in Nienburg (Weser), Lower Saxony, Germany

Now
66 °F

Mild.


Feels Like: 66 °F
Forecast: 54 / 67 °F
Wind: 8 mph from Southwest

Location: Wunstorf Airport

Current Time: Sep 30, 2014 at 5:53:17 PM

Latest Report: Sep 30, 2014 at 4:20 PM


Visibility: 5 mi

Pressure: 30.24 "Hg

Humidity: 68%

Dew point: 55 °F

Location of Nienburg (Weser)Location

Historic Weather in Nienburg (Weser) — Graph

°F

Nienburg (Weser) temperature yesterday

Maximum temperature yesterday: 73 °F (at 3:20 PM)
Minimum temperature yesterday: 52 °F (at 12:20 AM)
Average temperature yesterday: 63 °F

Past Weeks' High & Low Weather Summary

 TemperatureHumidityPressure
High77 °F (Sep 18, 3:20 PM)100% (Sep 15, 9:20 PM)30.39 "Hg (Sep 15, 9:20 PM)
Low43 °F (Sep 28, 5:20 AM)46% (Sep 21, 4:20 PM)29.80 "Hg (Sep 24, 4:20 PM)
Average60 °F82%30.05 "Hg
* Reported Sep 15 4:20 PM — Sep 30 4:20 PM, Nienburg (Weser), Weather by CustomWeather, © 2014

Note: Actual official high and low records may vary slightly from our data, if they occured in-between our weather recording intervals... More about our weather records

Advertising

Nienburg (Weser) weather history for previous 24 hours

 ConditionsComfort  
Time TempWeatherWind HumidityBarometerVisibility
4:20 PM
Sep 30
66 °FMild.8 mph68%30.24 "Hg5 mi
3:20 PM66 °FPartly sunny.9 mph73%30.24 "HgN/A
2:20 PM66 °FPartly sunny.12 mph73%30.24 "Hg4 mi
2:02 PM64 °FBroken clouds.8 mph88%30.24 "Hg4 mi
1:20 PM64 °FPartly sunny.7 mph88%30.24 "Hg5 mi
12:49 PM63 °FBroken clouds.7 mph94%30.24 "Hg4 mi
12:20 PM63 °FPartly sunny.10 mph94%30.24 "Hg4 mi
11:20 AM64 °FFog.7 mph88%30.24 "Hg3 mi
10:20 AM63 °FFog.7 mph94%30.21 "Hg2 mi
9:20 AM61 °FFog.7 mph94%30.21 "Hg3 mi
8:20 AM61 °FBroken clouds.3 mph94%30.21 "Hg4 mi
7:20 AM59 °FFog.6 mph100%30.21 "Hg3 mi
6:20 AM59 °FCool.5 mph100%30.18 "Hg3 mi
5:20 AM59 °FCool.3 mph100%30.18 "Hg3 mi
4:20 AM59 °FCool.5 mph100%30.18 "Hg1 mi
3:20 AM59 °FCool.3 mph100%30.18 "Hg1 mi
2:20 AM61 °FCool.5 mph94%30.21 "Hg1 mi
1:20 AM61 °FCool.5 mph100%30.18 "Hg2 mi
12:20 AM61 °FCool.7 mph100%30.21 "Hg2 mi
11:20 PM
Sep 29
63 °FMild.10 mph94%30.21 "Hg1 mi
10:20 PM64 °FMild.7 mph83%30.18 "Hg4 mi
9:20 PM66 °FMild.7 mph78%30.18 "Hg4 mi
8:20 PM66 °FMild.7 mph78%30.18 "Hg4 mi
7:20 PM68 °FMild.5 mph69%30.15 "Hg4 mi
6:20 PM70 °FMild.5 mph64%30.15 "Hg5 mi
5:20 PM73 °FMild.5 mph61%30.15 "Hg6 mi
Weather by CustomWeather, © 2014

See weather overviewHow to use our weather pages